2021-022AC (47958 NORAD) Tracking and Keplerian Element Data

This shows tracking and keplerian element data for the satellite.

Feedback or suggestion? Click here.




ElementValue
Catalog47958
Name2021-022AC
Epoch Orbit321
Epoch Day110.97993301
Epoch Year2021
RAAN14.2721
Inclination97.5594
Eccentricity0.0022308
Argument of Perigee144.3108
Mean Anonmoly338.004
Mean Motion15.05536595
Decay Rate1.96E-06
L11 47958U 21022AC 21110.97993301 .00000196 00000-0 17802-4 0 9994
L22 47958 97.5594 14.2721 0022308 144.3108 338.0040 15.05536595 3215

Live tracking and technical data element details for 2021-022AC (NORAD 47958). 2021-022AC can be tracked NOW for your location showing map with azimuth and elevation plus other details from your city location.

Track the satellite on the map from your city or location and see movement details for azimuth, elevation, latitude, longitude, range, height, and movement on the map or in text.







IsCatalogInMostPopularTable: catalog: 47958, numindb: 41
Update: records affected: 1



GetName: 47958 2021-022AC

Hit Count: updated at: Mon, 21 Jun 2021 03:02:41 GMT